Location: La Brionne
(46.1728°N, 1.7849°E)
Time: 22:33:21
(UTC+00:00)

NOSS 3-2 (C) - Pass Details

Date: 16 June 2021
Orbit: 778 x 1434 km, 63.4° (Epoch: 14 July)

Event Time Altitude Azimuth Distance (km) Brightness Sun altitude
Rises 21:09:40 0° 231° (SW) 3,335 6.3 -11.1°
Reaches altitude 10° 21:12:01 10° 235° (SW) 2,457 5.7 -11.4°
Maximum altitude 21:17:36 59° 315° (NW) 1,056 4.1 -12.0°
Drops below altitude 10° 21:24:07 10° 35° (NE) 2,851 6.2 -12.6°
Sets 21:27:01 0° 39° (NE) 3,914 6.9 -12.9°
